Location: Newport
(44.6370°N, 124.0520°W)
Time: 03:35:55
(UTC-07:00)

Tiangong 1 - Pass Details

Date: 13 October 2017
Orbit: 293 x 320 km, 42.8° (Epoch: 21 October)

Event Time Altitude Azimuth Distance (km) Brightness Sun altitude
Rises 19:54:09 0° 273° (W) 2,044 6.7 -15.0°
Reaches altitude 10° 19:56:15 10° 262° (W) 1,207 4.9 -15.3°
Maximum altitude 19:58:41 30° 198° (SSW) 596 2.1 -15.8°
Enters shadow 19:59:23 25° 167° (SSE) 668 2.1 -15.9°
